Flag for Netherlands Weather past 2 weeks in Tilburg, Netherlands

Now
43 °F

Overcast.


Feels Like: 35 °F
Forecast: 36 / 44 °F
Wind: 15 mph from Southwest

Location: Gilze-Rijen

Current Time: Mar 3, 2015 at 2:48:10 PM

Latest Report: Mar 3, 2015 at 1:55 PM


Visibility: N/A

Pressure: 29.95 "Hg

Humidity: 87%

Dew point: 39 °F

Location of TilburgLocation

Historic Weather in Tilburg — Graph

°F

Tilburg temperature yesterday

Maximum temperature yesterday: 46 °F (at 12:25 PM)
Minimum temperature yesterday: 37 °F (at 7:55 AM)
Average temperature yesterday: 42 °F

Past Weeks' High & Low Weather Summary

 TemperatureHumidityPressure
High52 °F (Mar 1, 12:25 PM)100% (Feb 16, 7:25 PM)30.74 "Hg (Feb 16, 7:25 PM)
Low25 °F (Feb 18, 1:25 AM)49% (Mar 2, 5:25 PM)29.30 "Hg (Feb 23, 6:59 AM)
Average40 °F85%29.90 "Hg
* Reported Feb 16 1:25 PM — Mar 3 1:55 PM, Tilburg, Weather by CustomWeather, © 2015

Note: Actual official high and low records may vary slightly from our data, if they occured in-between our weather recording intervals... More about our weather records

Advertising

Tilburg weather history for previous 24 hours

 ConditionsComfort  
Time TempWeatherWind HumidityBarometerVisibility
1:55 PM
Tue, Mar 3
43 °FOvercast.15 mph87%29.95 "HgN/A
1:25 PM43 °FLight rain. Mostly cloudy.14 mph87%29.95 "HgN/A
12:55 PM41 °FDrizzle. More clouds than sun.13 mph93%29.95 "HgN/A
12:25 PM41 °FRain showers. Mostly cloudy.14 mph87%29.95 "Hg4 mi
12:02 PM39 °FSprinkles. Mostly cloudy.13 mph93%29.95 "Hg4 mi
11:25 AM39 °FRain. Broken clouds.14 mph93%29.98 "Hg4 mi
11:00 AM39 °FRain showers. Cloudy.13 mph93%29.98 "Hg4 mi
10:25 AM39 °FRain showers. Broken clouds.13 mph87%30.01 "Hg3 mi
10:00 AM39 °FLight rain. Cloudy.12 mph93%30.01 "HgN/A
9:59 AM39 °FDrizzle. Mostly cloudy.12 mph87%30.01 "HgN/A
9:25 AM39 °FMostly cloudy.13 mph87%30.01 "HgN/A
9:03 AM39 °FDrizzle. Broken clouds.12 mph87%30.01 "HgN/A
8:55 AM39 °FDrizzle. Broken clouds.12 mph87%30.01 "HgN/A
8:25 AM37 °FLight rain. Mostly cloudy.12 mph93%30.01 "HgN/A
7:55 AM37 °FBroken clouds.10 mph87%30.01 "HgN/A
7:25 AM37 °FMostly cloudy.10 mph87%30.01 "HgN/A
6:55 AM37 °FPartly cloudy.12 mph87%30.01 "HgN/A
6:25 AM37 °FPartly cloudy.12 mph87%30.01 "HgN/A
5:55 AM37 °FPassing clouds.12 mph87%30.01 "HgN/A
5:25 AM36 °FPartly cloudy.10 mph93%30.01 "HgN/A
4:55 AM37 °FPassing clouds.7 mph87%30.01 "HgN/A
4:25 AM37 °FMostly cloudy.8 mph87%30.01 "HgN/A
3:55 AM37 °FPassing clouds.9 mph81%30.01 "HgN/A
3:25 AM37 °FOvercast.9 mph81%30.01 "HgN/A
2:55 AM39 °FOvercast.9 mph75%30.01 "HgN/A
2:25 AM39 °FMostly cloudy.10 mph75%30.01 "HgN/A
1:55 AM39 °FMostly cloudy.7 mph75%30.01 "HgN/A
1:25 AM39 °FOvercast.8 mph75%30.01 "HgN/A
12:55 AM39 °FPassing clouds.8 mph75%29.98 "HgN/A
12:25 AM39 °FPassing clouds.9 mph75%29.98 "HgN/A
11:55 PM
Mon, Mar 2
39 °FPassing clouds.10 mph75%29.98 "HgN/A
11:25 PM39 °FPassing clouds.8 mph75%29.95 "HgN/A
10:55 PM39 °FPassing clouds.7 mph70%29.95 "HgN/A
10:25 PM39 °FPassing clouds.8 mph70%29.95 "HgN/A
9:55 PM37 °FPassing clouds.6 mph75%29.92 "HgN/A
9:25 PM39 °FPassing clouds.6 mph70%29.92 "HgN/A
8:55 PM39 °FPassing clouds.8 mph70%29.89 "HgN/A
8:25 PM41 °FPassing clouds.10 mph66%29.89 "HgN/A
7:55 PM41 °FPassing clouds.13 mph66%29.86 "HgN/A
7:25 PM43 °FPartly cloudy.22 mph57%29.86 "HgN/A
6:55 PM43 °FPassing clouds.16 mph57%29.83 "HgN/A
6:25 PM43 °FPassing clouds.16 mph57%29.80 "HgN/A
5:55 PM43 °FScattered clouds.18 mph53%29.80 "HgN/A
5:25 PM45 °FPassing clouds.20 mph49%29.77 "HgN/A
4:55 PM45 °FBroken clouds.21 mph53%29.77 "HgN/A
4:25 PM45 °FBroken clouds.23 mph53%29.74 "HgN/A
3:55 PM45 °FBroken clouds.24 mph61%29.71 "HgN/A
3:25 PM43 °FPartly sunny.16 mph76%29.71 "HgN/A
3:02 PM41 °FSprinkles. Broken clouds.17 mph81%29.71 "HgN/A
2:58 PM41 °FSprinkles. Broken clouds.16 mph76%29.71 "Hg6 mi
2:25 PM43 °FBroken clouds.13 mph76%29.68 "HgN/A
Weather by CustomWeather, © 2015

See weather overviewHow to use our weather pages